User: anonymous   Login
Location: ?astrovice
(49.6513°N, 14.9287°E)
Time: 11:34:47
(UTC+00:00)
Language:

STARLINK-1143 - Orbit

View from above orbital plane
View from above orbital plane
View from above satellite
View from above satellite

Ground track
Ground track

The orbit data is extracted from the following two-line orbital elements,

1 45179U 20012B   20185.41667824  .00034265  00000-0  23611-2 0  9990
2 45179  52.9957   2.8944 0001280 105.6719  32.6708 15.05553722 21400
Epoch (UTC): 03 July 2020 10:00:01
Eccentricity: 0.0001280
inclination: 52.9957°
perigee height: 549 km
apogee height: 550 km
right ascension of ascending node: 2.8944°
argument of perigee: 105.6719°
revolutions per day: 15.05553722
mean anomaly at epoch: 32.6708°
orbit number at epoch: 2140

The dashed part of the orbit path shows where the satellite is in the earth's shadow,  

DLR